Terminal Aerodrome Forecast
Issued by NWS La Crosse, WI

Current Version | Previous Version | Text Only | Print | Product List | Glossary On
Versions: 1 2 3 4 5 6 7 8 9 10 11 12 13 14 15 16 17 18 19 20 21 22 23 24 25 26 27 28 29 30 31 32 33 34 35 36 37 38 39 40 41 42 43 44 45 46 47 48 49 50
000
FTUS43 KARX 192325
TAFLSE
TAF
KLSE 192325Z 2000/2024 16004KT P6SM -RA OVC040
     FM200300 VRB03KT 3SM -RA OVC008
     FM200700 VRB03KT 3SM -RA BR OVC003
     FM200900 VRB03KT 2SM BR OVC003
     FM201800 VRB03KT 4SM BR OVC008=

USA.gov is the U.S. government's official web portal to all federal, state and local government web resources and services.